RH
53 48 48 50 50 51 53 51 46 42 38 36 34 28 24 25 23 19 22 24 17 13 16 18 18 19 19 20 19 17 16 17 16 16 15 15 15 16 18 22 28 33 36 38 40 43 45 46 47 45 40 36 35 33 32 30 28 28 28 28 27 26 24 22 21 20 21 21 21 21 21 21 21 20 20 20 21 20 20 20 20 21 21 21 21 22 22
54 48 49 53 55 54 55 54 53 49 43 37 34 30 25 25 22 20 23 23 18 17 22 23 22 23 22 23 22 20 19 18 17 15 15 15 15 16 17 21 26 31 36 39 41 43 46 46 47 44 38 36 36 33 31 30 30 29 29 29 29 29 28 24 22 21 21 21 21 21 21 21 21 21 22 21 22 23 23 23 22 23 23 23 23 23 23
57 52 51 53 58 59 59 59 59 54 47 37 32 31 29 26 24 24 24 23 21 23 26 27 27 28 28 28 28 23 21 20 18 16 15 15 16 17 17 21 26 32 37 39 40 42 45 47 46 42 37 36 36 34 31 30 31 31 32 31 31 31 30 28 26 25 23 21 21 21 21 21 21 22 22 24 26 27 27 27 25 24 25 24 24 24 24
65 56 52 55 62 66 66 68 66 57 50 44 40 41 40 34 29 28 26 24 23 25 28 30 34 36 37 38 36 29 23 21 21 19 17 16 16 17 19 23 29 34 37 36 36 38 42 46 46 42 37 37 38 35 31 30 32 33 33 34 34 33 33 32 30 28 27 26 24 23 22 22 23 24 26 28 30 31 31 30 28 27 26 26 24 24 25
70 58 54 60 67 72 74 75 71 63 57 54 50 48 47 43 38 34 30 27 28 31 35 37 39 39 40 42 41 35 26 23 22 22 20 19 17 17 20 25 31 34 35 34 33 35 39 44 44 40 37 37 38 36 33 33 34 33 33 34 36 36 36 36 34 31 30 30 29 28 27 27 28 29 30 31 32 33 33 33 32 30 29 27 25 25 25
73 61 60 69 75 80 81 75 70 66 61 59 56 55 52 48 44 41 37 35 34 37 41 43 41 40 39 39 41 39 33 25 22 22 22 21 20 19 20 25 31 34 37 37 37 38 41 43 44 43 41 40 42 42 40 38 36 35 34 34 36 37 38 38 37 36 35 35 34 35 35 35 35 35 34 33 32 31 31 32 32 32 31 29 26 25 26
73 65 68 78 84 84 80 70 66 66 65 61 60 60 56 50 48 47 45 41 37 37 41 43 42 40 40 39 39 41 37 30 25 24 23 22 21 20 20 25 32 37 39 40 41 42 43 45 46 47 46 46 48 48 44 41 39 37 35 35 36 37 39 40 38 38 39 40 40 41 41 41 41 39 38 35 33 31 30 29 29 30 32 31 29 26 25
73 71 73 79 83 82 75 68 66 67 65 63 63 63 59 53 51 50 48 43 40 38 40 42 42 41 40 40 40 40 40 37 32 27 25 24 22 21 22 27 34 38 40 41 43 44 44 46 47 49 49 48 49 46 42 40 39 38 39 39 39 40 40 41 41 42 44 45 45 45 45 45 46 45 44 43 42 39 36 33 31 31 32 32 30 28 26
73 72 72 72 78 82 79 74 71 68 67 66 67 70 69 61 54 51 50 50 47 45 43 43 42 41 40 40 40 41 41 41 38 33 29 25 23 22 23 28 35 39 40 42 44 44 45 47 48 50 50 50 50 46 41 39 39 39 40 42 43 43 42 43 43 45 47 48 48 48 48 48 48 48 48 47 47 47 45 44 41 38 37 35 33 31 29
74 73 73 74 83 88 86 81 72 66 68 68 67 72 76 69 61 58 59 59 56 51 48 46 43 41 43 45 44 42 42 42 40 39 34 30 27 25 25 27 34 40 41 42 44 44 45 47 48 49 49 49 50 47 43 42 41 40 41 43 44 43 43 43 44 44 45 46 46 47 47 47 47 47 45 44 44 45 47 48 48 46 45 42 39 36 33
75 73 75 80 87 88 86 83 73 67 70 71 70 74 78 75 70 68 66 64 61 57 54 52 49 45 46 50 50 47 45 42 39 38 37 35 33 31 28 29 34 40 42 42 43 44 45 47 48 48 48 48 50 49 45 43 43 41 41 43 44 44 43 42 42 42 42 43 44 45 46 46 47 46 44 42 41 41 43 46 49 50 51 49 46 42 39
74 73 76 81 88 89 85 81 77 75 76 73 72 77 80 77 74 72 70 66 64 63 61 60 57 51 49 53 54 51 48 43 38 38 38 38 37 36 36 36 39 43 45 43 43 45 47 50 51 50 49 50 52 52 49 47 46 44 43 43 44 45 44 42 41 41 41 42 43 44 45 46 46 46 44 43 42 41 41 43 46 50 53 53 52 48 44
73 74 74 79 88 91 84 79 81 83 80 75 76 82 83 81 77 74 72 68 65 63 64 66 64 59 56 58 59 57 52 46 43 42 42 41 40 39 41 43 44 45 45 44 45 47 49 52 53 52 52 52 54 55 53 51 50 49 48 47 46 46 45 44 43 42 41 41 42 43 44 45 46 46 46 45 44 44 43 43 44 46 50 53 55 53 50
77 75 74 80 90 90 84 82 85 85 83 83 85 86 85 85 82 77 73 70 65 62 63 69 72 69 65 65 66 65 61 55 50 47 46 46 46 43 43 44 44 43 42 42 42 44 45 47 49 51 51 51 52 52 52 52 52 51 50 50 49 47 46 45 44 44 42 41 41 41 43 44 45 45 46 46 45 44 43 43 43 44 46 49 52 55 54
84 83 83 88 94 91 86 87 89 88 89 90 90 88 87 88 86 79 74 70 67 64 64 70 77 76 72 71 70 68 66 63 59 55 51 51 53 53 51 49 45 40 37 36 37 37 38 38 40 41 42 42 43 44 44 47 49 50 50 50 48 46 45 44 43 42 42 41 41 41 42 42 42 43 44 45 45 44 43 42 43 46 47 47 48 51 54
87 91 90 90 92 92 91 92 93 94 94 91 88 89 90 88 85 80 75 71 69 69 69 73 78 79 77 76 73 70 68 67 64 61 57 55 56 57 57 54 48 40 35 34 35 35 35 33 32 33 33 33 36 38 39 41 43 44 46 46 44 43 43 41 40 39 39 39 39 39 39 40 40 40 41 42 43 43 43 41 42 45 48 49 47 47 49
86 87 87 86 88 91 93 93 92 93 93 89 88 90 88 86 84 81 77 72 69 71 73 75 77 77 76 76 75 72 71 70 68 65 62 60 59 58 58 56 52 47 43 39 37 37 37 36 33 31 30 29 31 34 35 37 38 40 41 40 39 39 39 39 38 37 37 37 36 36 36 37 37 38 38 40 41 42 42 41 41 44 48 50 49 47 46
86 84 82 82 84 88 92 91 89 90 90 89 88 89 87 85 85 83 80 74 70 71 73 74 75 74 72 73 74 73 73 72 71 69 67 66 65 63 61 58 55 51 48 45 41 40 39 37 35 32 29 27 28 30 32 33 34 36 37 37 36 36 35 36 36 36 36 34 34 33 33 33 34 35 36 37 38 39 40 40 40 42 47 50 50 49 47
89 86 84 82 83 85 88 89 88 89 90 88 87 86 85 84 83 83 83 78 74 73 73 72 71 70 69 71 72 71 71 71 69 68 67 66 66 65 62 59 55 51 49 46 44 41 39 38 35 33 30 28 28 28 30 32 33 34 35 36 36 35 34 33 33 33 33 32 31 31 29 29 30 32 34 35 37 37 38 39 39 41 44 48 50 50 49
86 84 84 84 83 82 84 87 89 89 88 87 84 82 82 82 80 80 82 81 78 75 72 68 66 65 67 70 72 70 70 70 68 66 64 63 62 62 62 60 57 53 51 48 44 41 39 37 35 33 32 31 29 28 27 28 29 31 32 32 34 33 32 31 29 29 28 28 27 27 26 26 26 28 30 33 35 36 37 38 39 40 43 46 49 51 50
79 79 82 83 82 80 82 85 86 87 87 86 83 79 79 80 79 78 80 80 76 72 66 62 60 60 62 67 71 70 69 68 68 67 64 62 61 60 61 61 59 56 54 50 45 42 39 37 35 33 32 31 29 26 23 22 23 24 25 27 30 30 30 29 28 27 25 25 25 24 23 23 23 24 26 28 31 34 35 37 39 41 43 46 49 51 51
75 74 76 79 79 79 80 82 85 87 88 87 85 81 78 78 79 79 78 78 75 71 64 58 55 57 59 62 67 68 67 65 66 66 64 63 62 61 61 61 60 58 56 53 49 45 42 38 34 31 30 29 27 25 23 22 21 21 22 24 27 28 29 28 26 25 24 24 24 23 23 21 21 22 24 25 27 30 32 34 36 39 41 44 46 49 51
73 68 68 71 73 74 75 79 84 88 89 88 87 82 77 77 79 80 79 78 77 74 67 59 54 55 57 60 63 65 64 62 63 64 63 63 62 61 60 60 59 58 56 55 52 49 45 41 37 33 31 29 28 29 29 27 26 25 25 26 26 28 30 29 27 25 25 25 25 24 23 23 23 23 24 24 26 28 30 32 34 36 38 40 43 45 47
71 66 63 64 68 70 72 76 82 86 89 90 88 82 76 75 78 81 80 80 80 77 71 64 58 55 56 57 60 64 65 63 62 63 64 63 62 60 59 58 59 59 57 56 54 52 49 46 42 38 34 32 31 31 30 29 29 29 29 29 28 29 31 31 29 28 26 25 25 25 25 25 26 25 25 25 27 29 31 32 34 36 36 37 40 43 44
70 67 64 62 64 67 69 73 79 80 82 86 88 83 77 74 77 81 80 81 82 81 75 70 65 60 58 57 58 61 65 64 62 63 65 64 61 60 59 58 60 60 59 57 55 53 52 50 47 42 37 33 31 30 29 28 29 30 31 31 30 31 31 31 31 30 28 28 27 27 27 28 29 29 29 28 29 31 32 34 35 36 38 44 49 49 49
68 68 66 63 62 61 62 67 70 67 67 74 81 81 76 72 75 79 81 80 82 81 78 75 71 66 62 59 57 57 61 62 61 62 65 65 63 61 59 59 59 60 60 57 54 52 53 53 50 44 39 35 33 31 30 29 30 31 32 32 32 32 32 31 31 30 30 30 29 29 30 31 32 32 33 33 34 37 36 34 35 36 40 49 54 51 48
67 67 67 63 61 59 58 60 61 59 59 65 71 73 72 71 72 75 75 76 78 80 79 77 74 69 65 60 56 54 55 58 59 61 65 66 65 62 60 60 61 60 59 56 54 53 52 51 47 43 41 38 36 35 33 31 30 30 32 32 33 33 34 33 31 31 30 31 32 33 34 35 36 36 37 39 43 42 39 38 43 45 43 43 45 47 47
66 67 68 67 66 63 59 56 56 56 56 59 63 65 67 69 71 71 69 69 73 77 79 77 74 71 69 64 58 54 55 57 58 60 62 62 61 60 59 59 60 60 58 55 53 52 51 47 43 43 42 40 38 37 36 33 31 31 30 31 32 33 34 34 34 33 32 33 34 34 35 37 39 40 42 44 45 45 42 44 51 54 50 46 49 51 52
66 65 67 68 69 67 63 57 54 52 52 53 55 57 58 62 67 69 67 65 66 70 74 75 75 72 71 67 60 57 59 61 60 58 58 57 57 58 58 58 58 57 55 53 52 51 49 46 43 44 44 42 40 39 36 34 33 31 30 30 31 33 34 35 36 37 36 37 38 39 40 41 42 44 45 48 49 46 44 45 48 50 49 50 52 54 55
70 67 66 66 65 66 65 60 55 52 51 51 50 50 51 53 57 61 63 63 63 64 66 69 70 70 70 69 65 64 66 66 64 61 58 57 57 59 60 59 58 55 53 52 52 52 51 48 47 47 46 44 42 41 38 36 35 32 30 31 34 35 36 37 38 40 41 42 42 43 44 44 45 46 49 51 52 49 46 45 46 47 47 48 49 52 55
72 69 68 65 63 63 64 63 59 56 54 51 48 47 46 46 48 52 55 58 59 60 61 61 63 63 64 65 68 69 69 69 68 65 62 60 60 61 62 62 59 56 54 53 52 51 51 50 49 49 48 45 43 42 41 39 37 34 32 34 37 37 38 39 40 42 43 45 46 49 50 51 51 51 53 55 54 52 49 47 47 50 51 51 51 54 55
72 68 65 63 62 61 62 63 63 62 60 56 53 49 45 42 41 43 45 48 51 54 55 56 58 58 57 59 64 67 69 71 73 71 68 66 64 63 62 62 60 58 56 54 52 51 51 51 50 50 48 46 44 42 42 41 40 37 36 37 39 39 40 41 42 42 43 45 47 50 53 55 55 54 53 55 55 55 54 53 53 55 56 55 55 57 58
75 71 67 66 65 63 62 61 61 62 63 61 60 56 51 45 41 39 39 40 42 44 47 49 52 54 54 55 58 62 67 72 75 76 74 73 71 68 66 64 63 62 60 57 54 52 51 51 49 49 48 47 45 43 42 42 42 40 39 39 40 40 41 42 42 43 43 43 45 47 51 54 56 55 54 55 56 56 57 58 60 62 62 62 63 64 61
79 78 77 75 73 70 67 65 63 63 63 63 63 62 57 51 45 41 39 38 37 38 39 41 42 45 48 51 53 58 64 69 71 74 76 78 77 75 72 68 66 64 63 60 57 55 53 51 50 50 50 48 46 46 45 45 45 45 43 43 42 41 41 42 43 43 43 43 44 46 48 52 56 57 58 58 60 61 61 61 62 63 62 63 63 62 58
78 80 81 80 79 76 74 70 67 66 65 64 64 63 60 55 49 44 41 39 37 34 34 36 37 38 40 43 47 53 60 64 67 67 70 73 77 77 74 71 68 65 63 61 59 57 54 52 52 52 52 50 48 48 48 48 49 50 49 47 47 45 45 44 44 44 44 45 45 46 48 50 53 55 57 59 60 61 60 59 58 56 55 55 54 54 54
73 78 80 79 78 78 76 75 72 70 68 67 66 64 62 58 53 47 42 39 37 35 34 35 36 36 36 38 43 48 52 56 60 63 64 66 70 72 72 69 67 64 62 61 60 59 57 55 54 54 53 52 51 52 53 54 55 55 54 54 53 52 50 49 48 47 47 47 48 49 50 52 53 55 55 56 56 56 56 55 55 54 54 54 55 56 57
67 72 75 75 74 73 74 76 75 74 72 71 71 69 66 63 57 51 45 40 38 37 36 35 36 36 35 37 42 47 49 51 55 60 61 61 64 67 67 66 64 64 64 62 60 59 58 56 55 55 55 55 56 59 61 62 62 60 59 59 58 57 55 54 53 53 53 52 52 52 53 54 55 56 56 56 56 56 56 56 57 58 58 59 59 60 60
63 68 73 75 73 71 72 75 76 75 74 74 74 75 74 71 65 57 50 44 41 40 38 37 37 36 36 39 44 49 50 50 53 58 60 60 59 61 63 63 64 65 65 63 61 60 59 57 56 57 58 61 65 68 69 68 66 65 64 63 63 62 61 59 58 58 58 57 56 55 55 55 56 57 57 58 59 59 59 59 60 60 60 61 61 61 60
59 65 72 77 78 75 73 74 76 77 77 76 77 79 81 80 76 69 60 52 47 43 40 38 38 38 39 42 49 53 54 52 53 58 62 62 59 58 59 62 65 69 71 70 69 69 68 67 66 65 66 68 70 70 70 69 67 65 66 66 66 65 64 63 62 61 60 60 59 59 59 59 58 58 59 60 60 60 61 61 61 62 61 61 61 60 60
55 61 67 74 80 82 79 77 78 80 81 81 82 85 86 87 87 82 74 65 57 51 47 46 48 49 47 45 48 53 56 55 54 56 60 62 61 58 58 61 65 70 76 79 79 77 77 76 75 73 71 70 69 68 68 67 65 64 66 67 67 66 65 63 63 63 64 64 64 64 64 64 64 63 64 64 63 64 64 63 63 63 62 62 61 61 61
48 56 62 69 76 83 85 83 82 82 82 84 86 88 91 92 92 91 88 81 73 65 60 57 58 59 57 52 50 52 53 54 56 57 58 60 62 61 59 60 63 66 71 76 79 79 77 76 74 72 69 67 65 65 66 66 66 66 65 65 64 64 63 63 63 63 64 66 67 67 68 68 69 69 68 67 66 66 66 65 65 64 64 63 63 63 63
41 47 55 63 72 80 86 89 88 86 83 83 85 87 90 93 95 94 93 91 86 80 73 67 63 63 62 58 56 54 52 51 54 57 59 63 66 66 63 63 66 67 69 71 73 75 74 72 70 67 66 66 65 64 65 68 69 67 65 64 66 66 65 65 65 67 67 66 65 64 64 64 65 65 65 65 65 66 67 67 66 67 66 66 66 65 65
42 42 46 55 66 75 82 87 91 90 89 88 87 87 87 91 94 94 93 93 91 89 85 79 73 70 66 63 62 60 58 54 52 54 57 63 67 67 66 68 70 71 70 70 70 71 71 69 66 64 62 64 65 64 65 68 69 67 65 66 68 68 67 68 70 74 75 72 68 64 63 61 60 60 61 62 64 67 69 69 69 68 68 67 67 67 66
49 44 41 45 55 65 75 82 87 92 94 95 93 91 90 91 94 95 93 92 92 92 91 88 84 81 76 72 68 65 64 60 55 54 56 59 62 64 66 70 73 74 73 72 71 70 69 66 63 60 59 60 62 65 66 68 68 68 68 69 69 69 70 72 75 78 80 77 74 71 68 66 65 64 64 64 66 67 68 69 68 68 67 66 66 65 65
52 48 43 41 42 51 64 73 80 86 91 94 95 95 94 94 96 96 95 94 93 92 91 91 88 85 82 80 75 70 68 67 64 62 62 62 62 63 64 66 70 73 74 71 70 70 69 65 61 59 58 59 62 66 70 72 71 69 70 71 71 72 75 76 78 79 80 80 79 77 74 71 70 68 67 66 66 67 67 68 67 66 65 64 63 63 63
53 50 49 45 41 42 51 62 70 78 85 91 94 95 94 94 96 96 96 95 95 94 93 92 89 86 83 81 79 76 74 72 71 71 69 67 67 67 66 64 66 70 71 69 67 68 67 65 62 60 62 65 67 69 71 73 72 71 72 73 75 77 79 79 79 79 79 78 78 77 75 73 71 70 69 68 67 65 64 64 62 61 61 61 60 60 60
51 49 49 49 46 43 44 50 58 68 78 85 91 93 94 94 95 96 96 96 96 96 96 95 93 90 87 85 83 83 82 78 75 72 68 65 66 70 72 71 70 70 69 68 67 66 64 64 63 63 65 70 73 72 71 71 72 73 75 78 79 78 77 76 76 75 74 74 75 75 74 72 73 73 72 70 67 64 63 61 61 60 60 59 59 59 58
52 49 48 48 48 48 46 44 46 54 65 76 83 88 92 94 95 95 95 95 95 96 97 97 95 94 93 92 91 92 92 88 83 79 75 68 65 67 71 71 69 68 67 68 69 68 67 68 69 69 70 73 76 75 75 77 79 80 83 84 81 78 76 76 76 76 76 75 74 72 70 70 72 73 72 69 66 64 62 60 58 57 56 54 53 52 50
56 54 52 49 48 50 52 49 45 45 52 62 71 78 84 90 94 96 96 95 94 95 96 97 96 95 96 95 95 95 95 93 92 92 89 82 75 73 74 74 72 71 72 72 71 70 70 72 76 79 81 83 85 84 84 85 86 87 87 86 84 82 81 82 82 82 80 79 76 73 71 71 71 69 67 64 61 58 56 54 51 50 50 48 46 45 45
60 58 56 54 52 52 54 55 52 47 46 50 59 67 74 81 88 93 95 95 95 96 96 97 97 97 97 96 95 96 95 92 91 93 95 94 90 89 89 86 83 81 81 79 76 76 78 82 85 88 91 92 92 91 91 90 88 87 88 88 88 88 87 87 85 84 84 82 80 78 76 72 68 64 61 59 57 56 55 54 54 54 53 50 48 48 48
61 58 58 57 55 53 53 56 57 54 49 47 49 55 62 69 77 84 89 92 94 96 97 97 98 99 99 98 97 96 96 94 91 91 93 95 96 95 95 92 89 87 86 86 86 88 90 90 91 91 92 92 93 93 93 92 90 89 90 89 88 88 87 85 84 83 83 82 81 79 76 70 66 63 61 59 58 59 61 62 62 62 60 58 56 55 53
60 59 58 57 55 52 53 56 58 58 56 52 49 49 53 58 64 71 78 84 88 91 93 95 96 97 98 98 98 97 96 96 95 93 92 93 94 95 94 93 92 91 91 93 93 92 92 92 92 92 92 92 93 92 92 92 92 91 91 89 88 86 82 78 75 74 75 77 76 74 70 67 65 63 61 60 60 61 64 64 64 64 63 61 60 58 54